Location: Grossmotten
(48.5500°N, 15.3833°E)
Time: 20:47:19
(UTC+00:00)

Cosmos 1869 - Pass Details

Date: 15 November 2019
Orbit: 529 x 554 km, 82.5° (Epoch: 12 December)

Event Time Altitude Azimuth Distance (km) Brightness Sun altitude
Exits shadow 04:28:36 30° 257° (WSW) 979 4.1 -16.0°
Drops below altitude 10° 04:31:39 10° 207° (SSW) 1,778 5.7 -15.5°
Sets 04:33:57 0° 197° (SSW) 2,665 6.8 -15.1°
